Weather History for KTTF - April, 2014

Change the Weather History Date:

Saturday, April 26, 2014

  Actual Average Record
Temperature  
Mean Temperature 49 °F -  
Max Temperature 59 °F 62 °F 90 °F (1990)
Min Temperature 39 °F 42 °F 26 °F (1972)
Degree Days  
Heating Degree Days 16    
Moisture  
Dew Point 36 °F    
Average Humidity 62    
Maximum Humidity 87    
Minimum Humidity 39    
Precipitation  
Precipitation 0.00 in - - ()
Sea Level Pressure  
Sea Level Pressure 29.90 in    
Wind  
Wind Speed 7 mph (NW)    
Max Wind Speed 17 mph    
Max Gust Speed 24 mph    
Visibility 10 miles    
Events      
Averages and records for this station are not official NWS values.
T = Trace of Precipitation, MM = Missing Value Source: NWS Daily Summary

Daily Weather History Graph

Daily Weather History Graph

Search for Another Location

Airport or City:

Trip Planner

Search our weather history database for the weather conditions in past years. The results will help you decide how hot, cold, wet, or windy it might be!

Date:

Astronomy

Apr. 26, 2014 Rise Set
Actual Time 6:36 AM EDT 8:26 PM EDT
Civil Twilight 6:06 AM EDT 8:56 PM EDT
Nautical Twilight 5:30 AM EDT 9:33 PM EDT
Astronomical Twilight 4:51 AM EDT 10:12 PM EDT
Moon 5:03 AM EDT (4/26) 5:51 PM EDT (4/26)
Length of Visible Light 14h 50m
Length of Day
13h 50m
Waning Crescent, 8% of the Moon is Illuminated
Apr 26
Waning Crescent
Apr 29
New
May 6
First Quarter
May 14
Full
May 21
Last Quarter

Hourly Weather History & Observations

Time (EDT) Temp. Windchill Dew Point Humidity Pressure Visibility Wind Dir Wind Speed Gust Speed Precip Events Conditions
12:14 AM 44.6 °F - 39.2 °F 81% 29.81 in 10.0 mi Calm Calm - N/A   Scattered Clouds
12:34 AM 44.6 °F - 39.2 °F 81% 29.82 in 10.0 mi Calm Calm - N/A   Mostly Cloudy
1:14 AM 44.6 °F - 39.2 °F 81% 29.81 in 10.0 mi Calm Calm - N/A   Scattered Clouds
1:34 AM 42.8 °F 40.1 °F 39.2 °F 87% 29.81 in 10.0 mi SSW 4.6 mph - N/A   Scattered Clouds
1:54 AM 44.6 °F 42.2 °F 39.2 °F 81% 29.80 in 10.0 mi SSW 4.6 mph - N/A   Clear
2:15 AM 46.4 °F 44.3 °F 39.2 °F 76% 29.79 in 10.0 mi SSW 4.6 mph - N/A   Mostly Cloudy
2:35 AM 46.4 °F 43.5 °F 39.2 °F 76% 29.78 in 10.0 mi SSW 5.8 mph - N/A   Mostly Cloudy
2:55 AM 46.4 °F 42.9 °F 39.2 °F 76% 29.77 in 10.0 mi SSW 6.9 mph - N/A   Scattered Clouds
3:15 AM 48.2 °F - 39.2 °F 71% 29.77 in 10.0 mi SSW 6.9 mph - N/A   Scattered Clouds
3:35 AM 48.2 °F - 39.2 °F 71% 29.76 in 10.0 mi SSW 6.9 mph - N/A   Mostly Cloudy
3:55 AM 48.2 °F - 39.2 °F 71% 29.76 in 10.0 mi SW 3.5 mph - N/A   Mostly Cloudy
4:15 AM 48.2 °F - 41.0 °F 76% 29.77 in 10.0 mi West 4.6 mph - N/A   Mostly Cloudy
4:35 AM 46.4 °F 44.3 °F 39.2 °F 76% 29.77 in 10.0 mi West 4.6 mph - N/A   Overcast
4:55 AM 46.4 °F 44.3 °F 39.2 °F 76% 29.77 in 10.0 mi West 4.6 mph - N/A   Overcast
5:15 AM 46.4 °F 44.3 °F 39.2 °F 76% 29.77 in 10.0 mi West 4.6 mph - N/A   Mostly Cloudy
5:35 AM 46.4 °F 43.5 °F 41.0 °F 81% 29.77 in 10.0 mi WSW 5.8 mph - N/A   Overcast
5:56 AM 46.4 °F 42.4 °F 41.0 °F 81% 29.76 in 10.0 mi SW 8.1 mph - N/A   Mostly Cloudy
6:16 AM 46.4 °F 42.4 °F 39.2 °F 76% 29.78 in 10.0 mi West 8.1 mph - N/A   Scattered Clouds
6:36 AM 44.6 °F 42.2 °F 39.2 °F 81% 29.79 in 10.0 mi WNW 4.6 mph - N/A   Scattered Clouds
6:56 AM 46.4 °F 42.4 °F 39.2 °F 76% 29.80 in 10.0 mi WNW 8.1 mph - N/A   Scattered Clouds
7:16 AM 46.4 °F 42.4 °F 39.2 °F 76% 29.81 in 10.0 mi WNW 8.1 mph - N/A   Clear
7:36 AM 46.4 °F 42.9 °F 39.2 °F 76% 29.82 in 10.0 mi WNW 6.9 mph - N/A   Clear
7:51 AM 46.4 °F 42.4 °F 39.2 °F 76% 29.83 in 10.0 mi NW 8.1 mph - N/A   Clear
8:11 AM 48.2 °F - 39.2 °F 71% 29.83 in 10.0 mi NW 9.2 mph - N/A   Clear
8:31 AM 48.2 °F - 39.2 °F 71% 29.84 in 10.0 mi NW 10.4 mph - N/A   Clear
8:52 AM 50.0 °F - 37.4 °F 62% 29.84 in 10.0 mi NW 12.7 mph 18.4 mph N/A   Clear
9:12 AM 50.0 °F - 35.6 °F 58% 29.84 in 10.0 mi WNW 15.0 mph - N/A   Clear
9:32 AM 51.8 °F - 33.8 °F 50% 29.85 in 10.0 mi WNW 15.0 mph 23.0 mph N/A   Clear
10:12 AM 51.8 °F - 33.8 °F 50% 29.86 in 10.0 mi NW 16.1 mph 24.2 mph N/A   Clear
10:32 AM 51.8 °F - 33.8 °F 50% 29.87 in 10.0 mi NW 16.1 mph 23.0 mph N/A   Clear
10:52 AM 53.6 °F - 35.6 °F 51% 29.88 in 10.0 mi NW 11.5 mph 23.0 mph N/A   Clear
11:12 AM 53.6 °F - 35.6 °F 51% 29.88 in 10.0 mi NW 15.0 mph 21.9 mph N/A   Clear
11:32 AM 55.4 °F - 35.6 °F 47% 29.89 in 10.0 mi NW 15.0 mph 21.9 mph N/A   Clear
11:52 AM 55.4 °F - 35.6 °F 47% 29.89 in 10.0 mi NW 12.7 mph 23.0 mph N/A   Clear
12:13 PM 55.4 °F - 35.6 °F 47% 29.90 in 10.0 mi NW 17.3 mph 23.0 mph N/A   Clear
12:33 PM 55.4 °F - 35.6 °F 47% 29.89 in 10.0 mi NW 12.7 mph 20.7 mph N/A   Clear
12:53 PM 55.4 °F - 35.6 °F 47% 29.89 in 10.0 mi NNW 13.8 mph 23.0 mph N/A   Clear
1:13 PM 57.2 °F - 35.6 °F 44% 29.90 in 10.0 mi NW 15.0 mph 18.4 mph N/A   Clear
1:33 PM 57.2 °F - 33.8 °F 41% 29.90 in 10.0 mi NW 12.7 mph - N/A   Clear
1:53 PM 55.4 °F - 32.0 °F 41% 29.90 in 10.0 mi WNW 11.5 mph 21.9 mph N/A   Clear
2:13 PM 57.2 °F - 33.8 °F 41% 29.90 in 10.0 mi NNW 13.8 mph 19.6 mph N/A   Clear
2:33 PM 57.2 °F - 33.8 °F 41% 29.91 in 10.0 mi WNW 8.1 mph - N/A   Clear
2:53 PM 57.2 °F - 33.8 °F 41% 29.92 in 10.0 mi NW 6.9 mph - N/A   Clear
3:13 PM 57.2 °F - 33.8 °F 41% 29.93 in 10.0 mi North 8.1 mph 18.4 mph N/A   Clear
3:33 PM 57.2 °F - 33.8 °F 41% 29.94 in 10.0 mi NNW 12.7 mph 19.6 mph N/A   Clear
3:54 PM 59.0 °F - 33.8 °F 39% 29.94 in 10.0 mi NNW 10.4 mph 18.4 mph N/A   Clear
4:14 PM 59.0 °F - 33.8 °F 39% 29.95 in 10.0 mi WNW 11.5 mph 17.3 mph N/A   Clear
4:34 PM 57.2 °F - 33.8 °F 41% 29.95 in 10.0 mi NNW 11.5 mph 16.1 mph N/A   Clear
4:54 PM 57.2 °F - 33.8 °F 41% 29.96 in 10.0 mi NNW 11.5 mph 17.3 mph N/A   Clear
5:14 PM 57.2 °F - 33.8 °F 41% 29.96 in 10.0 mi North 11.5 mph 17.3 mph N/A   Clear
5:34 PM 57.2 °F - 33.8 °F 41% 29.96 in 10.0 mi North 8.1 mph - N/A   Clear
5:54 PM 57.2 °F - 33.8 °F 41% 29.97 in 10.0 mi NNE 3.5 mph - N/A   Clear
6:14 PM 57.2 °F - 33.8 °F 41% 29.97 in 10.0 mi NNE 5.8 mph - N/A   Clear
6:34 PM 57.2 °F - 33.8 °F 41% 29.98 in 10.0 mi North 9.2 mph - N/A   Clear
6:54 PM 55.4 °F - 35.6 °F 47% 29.98 in 10.0 mi NNE 8.1 mph - N/A   Clear
7:15 PM 55.4 °F - 35.6 °F 47% 29.99 in 10.0 mi NNE 9.2 mph - N/A   Clear
7:35 PM 53.6 °F - 33.8 °F 47% 29.99 in 10.0 mi NNE 6.9 mph - N/A   Clear
7:55 PM 51.8 °F - 35.6 °F 54% 30.01 in 10.0 mi East 5.8 mph - N/A   Clear
8:15 PM 48.2 °F - 35.6 °F 62% 30.02 in 10.0 mi East 4.6 mph - N/A   Clear
8:35 PM 48.2 °F - 33.8 °F 58% 30.03 in 10.0 mi NE 4.6 mph - N/A   Clear
8:55 PM 46.4 °F 42.9 °F 33.8 °F 62% 30.04 in 10.0 mi ENE 6.9 mph - N/A   Clear
9:15 PM 46.4 °F 40.4 °F 35.6 °F 66% 30.05 in 10.0 mi ENE 13.8 mph 21.9 mph N/A   Clear
9:35 PM 42.8 °F 36.6 °F 35.6 °F 76% 30.05 in 10.0 mi ENE 11.5 mph 21.9 mph N/A   Clear
9:56 PM 42.8 °F 35.8 °F 35.6 °F 76% 30.07 in 10.0 mi ENE 13.8 mph - N/A   Clear
10:16 PM 41.0 °F 34.3 °F 35.6 °F 81% 30.07 in 10.0 mi ENE 11.5 mph 16.1 mph N/A   Clear
10:36 PM 41.0 °F 36.4 °F 35.6 °F 81% 30.08 in 10.0 mi ENE 6.9 mph 16.1 mph N/A   Clear
10:56 PM 39.2 °F 33.6 °F 35.6 °F 87% 30.09 in 10.0 mi ENE 8.1 mph - N/A   Clear
11:16 PM 39.2 °F 33.6 °F 35.6 °F 87% 30.09 in 10.0 mi ENE 8.1 mph - N/A   Clear
11:36 PM 39.2 °F 32.0 °F 33.8 °F 81% 30.08 in 10.0 mi ENE 11.5 mph - N/A   Clear
11:56 PM 39.2 °F 33.0 °F 33.8 °F 81% 30.08 in 10.0 mi East 9.2 mph - N/A   Clear